This is the latest recevied weather packets stored in our database for station/object KO4LFZ. If no packets are shown the sender has not sent any weather packets the latest 10 day(s).
| Time | Temp. | Humidity | Pressure | Rain* | Wind** | Luminosity | Snow |
|---|---|---|---|---|---|---|---|
| 1787373235 | 20.56° C | 98% | 1016.1 hPa | 0 mm | - | 0 W/m² | - |
| 1787372930 | 20.56° C | 98% | 1015.9 hPa | 0 mm | - | 0 W/m² | - |
| 1787372626 | 20.56° C | 97% | 1015.8 hPa | 0 mm | - | 0 W/m² | - |
| 1787372322 | 21.11° C | 96% | 1015.7 hPa | 0 mm | - | 0 W/m² | - |
| 1787372018 | 21.67° C | 96% | 1015.9 hPa | 0 mm | - | 0 W/m² | - |
| 1787371714 | 21.67° C | 96% | 1016 hPa | 0 mm | - | 0 W/m² | - |
| 1787371410 | 21.67° C | 96% | 1016.2 hPa | 0 mm | - | 0 W/m² | - |
| 1787371109 | 21.67° C | 96% | 1016 hPa | 0 mm | - | 0 W/m² | - |
| 1787370804 | 22.22° C | 96% | 1016 hPa | 0 mm | - | 0 W/m² | - |
| 1787370500 | 21.67° C | 97% | 1016.2 hPa | 0 mm | - | 0 W/m² | - |
| 1787370195 | 21.67° C | 98% | 1016 hPa | 0 mm | - | 0 W/m² | - |
| 1787369890 | 21.67° C | 98% | 1016.1 hPa | 0 mm | - | 0 W/m² | - |
| 1787369587 | 21.11° C | 99% | 1016 hPa | 0 mm | - | 0 W/m² | - |
| 1787369284 | 21.11° C | 98% | 1016.1 hPa | 0 mm | - | 0 W/m² | - |
| 1787368979 | 21.11° C | 98% | 1016.3 hPa | 0 mm | - | 0 W/m² | - |
| 1787368678 | 21.67° C | 98% | 1016.3 hPa | 0 mm | - | 0 W/m² | - |
| 1787368373 | 21.67° C | 98% | 1016.3 hPa | 0 mm | - | 0 W/m² | - |
| 1787368069 | 21.67° C | 97% | 1016.2 hPa | 0 mm | - | 0 W/m² | - |
| 1787367764 | 21.67° C | 97% | 1016.5 hPa | 0 mm | - | 0 W/m² | - |
| 1787367459 | 21.67° C | 97% | 1016.4 hPa | 0 mm | - | 0 W/m² | - |
| 1787367154 | 21.67° C | 97% | 1016.1 hPa | 0 mm | - | 0 W/m² | - |
| 1787366853 | 21.67° C | 97% | 1016.1 hPa | 0 mm | - | 0 W/m² | - |
| 1787366547 | 21.67° C | 97% | 1016.1 hPa | 0 mm | - | 0 W/m² | - |
| 1787366242 | 21.67° C | 96% | 1016.1 hPa | 0 mm | - | 0 W/m² | - |
| 1787365939 | 21.67° C | 95% | 1016.1 hPa | 0 mm | - | 0 W/m² | - |
* Rain latest hour (hover to see other rain measurements)
** Current wind speed in m/s (hover to see current wind gust speed)